Flag for Canada Weather past 2 weeks in Lethbridge, Alberta, Canada

Now
66 °F

Overcast.


Feels Like: 66 °F
Forecast: 55 / 83 °F
Wind: 13 mph from Southwest

Location: Lethbridge

Current Time: Aug 28, 2015 at 4:14:54 AM

Latest Report: Aug 28, 2015 at 3:00 AM


Visibility: 4 mi

Pressure: 29.86 "Hg (26.97 "Hg at 872m altitude)

Humidity: 40%

Dew point: 41 °F

Location of LethbridgeLocation

Historic Weather in Lethbridge — Graph

°F

Lethbridge temperature yesterday

Maximum temperature yesterday: 90 °F (at 3:00 PM)
Minimum temperature yesterday: 46 °F (at 7:00 AM)
Average temperature yesterday: 67 °F

Past Weeks' High & Low Weather Summary

 TemperatureHumidityPressure
High99 °F (Aug 13, 4:00 PM)100% (Aug 17, 5:00 AM)30.30 "Hg (Aug 17, 5:00 AM)
Low36 °F (Aug 23, 5:00 AM)13% (Aug 13, 4:00 PM)29.63 "Hg (Aug 21, 10:00 AM)
Average62 °F61%29.99 "Hg
* Reported Aug 13 3:00 AM — Aug 28 3:00 AM, Lethbridge, Weather by CustomWeather, © 2015

Note: Actual official high and low records may vary slightly from our data, if they occured in-between our weather recording intervals... More about our weather records

Advertising

Lethbridge weather history for previous 24 hours

 ConditionsComfort  
Time TempWeatherWind HumidityBarometerVisibility
3:00 AM
Fri, Aug 28
66 °FOvercast.13 mph40%29.86 "Hg4 mi
2:00 AM68 °FOvercast.15 mph38%29.87 "Hg3 mi
1:00 AM70 °FOvercast.14 mph35%29.86 "Hg3 mi
12:00 AM66 °FOvercast.14 mph40%29.88 "Hg3 mi
11:00 PM
Thu, Aug 27
66 °FOvercast.16 mph40%29.89 "Hg3 mi
10:00 PM70 °FPassing clouds.15 mph35%29.88 "Hg5 mi
9:00 PM68 °FPartly sunny.10 mph40%29.88 "Hg4 mi
8:00 PM77 °FPartly sunny.14 mph26%29.86 "Hg4 mi
7:00 PM82 °FPartly sunny.23 mph20%29.86 "Hg4 mi
6:00 PM86 °FHigh level clouds.25 mph18%29.86 "Hg5 mi
5:00 PM88 °FHigh level clouds.25 mph16%29.86 "Hg5 mi
4:00 PM90 °FHigh level clouds.28 mph15%29.87 "Hg4 mi
3:00 PM90 °FHigh level clouds.25 mph15%29.88 "Hg2 mi
2:00 PM84 °FMore clouds than sun.16 mph27%29.91 "Hg4 mi
1:00 PM79 °FOvercast.15 mph34%29.93 "Hg4 mi
12:00 PM75 °FOvercast.15 mph44%29.94 "Hg4 mi
11:00 AM68 °FOvercast.6 mph60%29.96 "Hg4 mi
10:00 AM63 °FMostly cloudy.6 mph73%29.97 "Hg3 mi
9:00 AM57 °FPartly sunny.5 mph88%29.98 "Hg3 mi
8:00 AM54 °FBroken clouds.7 mph88%29.99 "Hg3 mi
7:00 AM46 °FPartly cloudy.7 mph100%29.99 "Hg2 mi
6:00 AM48 °FClear.5 mph100%29.98 "Hg2 mi
5:00 AM48 °FFog.7 mph94%29.98 "Hg2 mi
4:00 AM48 °FFog.7 mph100%29.98 "Hg3 mi
Weather by CustomWeather, © 2015

See weather overviewHow to use our weather pages